KAY64F LSZS-EDDV

Flight info

Callsign KAY64F
Flight time N/A
Altitude 36000
Route RONAG DCT NEGRA DCT MINGA Z1 ETAGO DCT KEMAD/N0428F370 DCT ELNAT ELNAT5P
Aircraft A19N/M-SDE3FGHIRWY/LB1

Departure

Time 2026-04-24 16:55
Airport Engadin Airport (LSZS)

Arrival

Time N/A
Airport Hannover Airport (EDDV)
Time Latitude Longitude Altitude Speed Heading
2026-04-24 16:34 46.53078 9.88001 5665 ft 0 kts 263°
2026-04-24 16:52 46.53078 9.87998 5665 ft 3 kts 262°
2026-04-24 16:53 46.53053 9.87948 5665 ft 6 kts 220°
2026-04-24 16:53 46.53012 9.87942 5666 ft 6 kts 148°
2026-04-24 16:53 46.52972 9.88008 5665 ft 9 kts 151°
2026-04-24 16:53 46.52910 9.87983 5667 ft 9 kts 213°
2026-04-24 16:54 46.52853 9.87932 5668 ft 9 kts 210°
2026-04-24 16:54 46.52794 9.87886 5670 ft 10 kts 203°
2026-04-24 16:54 46.52749 9.87857 5671 ft 2 kts 281°
2026-04-24 16:54 46.52767 9.87865 5671 ft 3 kts 25°
2026-04-24 16:55 46.52898 9.87968 5667 ft 59 kts 28°
2026-04-24 16:55 46.53510 9.88463 5652 ft 138 kts 28°
2026-04-24 16:55 46.54456 9.89261 6089 ft 162 kts 30°
2026-04-24 16:55 46.55346 9.90200 6885 ft 164 kts 32°
2026-04-24 16:56 46.56251 9.91171 7712 ft 166 kts 34°
2026-04-24 16:56 46.57167 9.92175 8495 ft 170 kts 32°
2026-04-24 16:56 46.58218 9.93095 9122 ft 185 kts 28°
2026-04-24 16:56 46.59376 9.94073 9743 ft 202 kts 30°
2026-04-24 16:57 46.60621 9.95177 10362 ft 219 kts 31°
2026-04-24 16:57 46.61961 9.96414 10877 ft 243 kts 32°
2026-04-24 16:57 46.63314 9.97893 11875 ft 248 kts 43°
2026-04-24 16:57 46.64446 9.99728 12973 ft 247 kts 50°
2026-04-24 16:58 46.65467 10.01692 13939 ft 249 kts 52°
2026-04-24 16:58 46.66492 10.03710 14856 ft 252 kts 52°
2026-04-24 16:58 46.67531 10.05742 15778 ft 255 kts 52°
2026-04-24 16:58 46.68600 10.07818 16661 ft 258 kts 52°
2026-04-24 16:59 46.69669 10.09882 17523 ft 261 kts 52°
2026-04-24 16:59 46.70757 10.11980 18370 ft 264 kts 52°
2026-04-24 16:59 46.72987 10.16275 20016 ft 269 kts 52°
2026-04-24 17:00 46.74116 10.18449 20831 ft 272 kts 52°
2026-04-24 17:00 46.76664 10.22566 22165 ft 286 kts 30°
2026-04-24 17:00 46.78566 10.23556 22569 ft 303 kts
2026-04-24 17:01 46.82792 10.21792 23335 ft 342 kts 332°
2026-04-24 17:01 46.84877 10.19976 23698 ft 358 kts 331°
2026-04-24 17:02 46.89233 10.16158 24979 ft 370 kts 331°
2026-04-24 17:02 46.91486 10.14193 25553 ft 378 kts 331°
2026-04-24 17:02 46.93736 10.12230 26073 ft 385 kts 331°
2026-04-24 17:02 46.96069 10.10196 26684 ft 389 kts 331°
2026-04-24 17:03 47.00752 10.06109 27899 ft 396 kts 331°
2026-04-24 17:03 47.03120 10.04041 28471 ft 400 kts 331°
2026-04-24 17:03 47.05521 10.01941 29033 ft 403 kts 331°
2026-04-24 17:04 47.07926 9.99836 29569 ft 407 kts 331°
2026-04-24 17:04 47.12786 9.95590 30932 ft 404 kts 331°
2026-04-24 17:04 47.15183 9.93496 31630 ft 402 kts 330°
2026-04-24 17:05 47.17599 9.91381 32291 ft 401 kts 330°
2026-04-24 17:05 47.19971 9.89299 32893 ft 400 kts 330°
2026-04-24 17:05 47.24724 9.85113 34045 ft 399 kts 330°
2026-04-24 17:06 47.27100 9.83016 34572 ft 400 kts 330°
2026-04-24 17:06 47.34388 9.76570 35113 ft 408 kts 330°
2026-04-24 17:07 47.35995 9.75146 35630 ft 404 kts 329°
2026-04-24 17:07 47.39209 9.72296 36121 ft 403 kts 329°
2026-04-24 17:08 47.48757 9.63796 36125 ft 403 kts 329°
2026-04-24 17:08 47.53603 9.59463 36127 ft 404 kts 328°
2026-04-24 17:09 47.63230 9.50821 36129 ft 404 kts 328°
2026-04-24 17:10 47.73436 9.44187 36130 ft 404 kts 347°
2026-04-24 17:11 47.81867 9.43422 36137 ft 406 kts
2026-04-24 17:12 47.95913 9.44569 36133 ft 406 kts